User: anonymous   Login
Location: Observatoire
(46.1952°N, 5.3391°E)
Time: 02:33:13
(UTC+02:00)
Language:

CUBESAT XI-V - Orbit

View from above orbital plane
View from above orbital plane
View from above satellite
View from above satellite

Ground track
Ground track

The orbit data is extracted from the following two-line orbital elements,

1 28895U 05043F   24109.85429354  .00005640  00000-0  10065-2 0  9999
2 28895  98.1917 245.6442 0016074 180.9214 179.1963 14.67284749985986
Epoch (UTC): 18 April 2024 20:30:10
Eccentricity: 0.0016074
inclination: 98.1917°
perigee height: 658 km
apogee height: 681 km
right ascension of ascending node: 245.6442°
argument of perigee: 180.9214°
revolutions per day: 14.67284749
mean anomaly at epoch: 179.1963°
orbit number at epoch: 98598

The dashed part of the orbit path shows where the satellite is in the earth's shadow,  

DLR